• Processing (Info)

  • MPEC 2005-P05 : 2005 OH3

    The following Minor Planet Electronic Circular may be linked-to from your own Web pages, but must not otherwise be redistributed electronically.

    A form allowing access to any MPEC is at the bottom of this page.


    Read MPEC 2005-P04 Read MPEC 2005-P06


    M.P.E.C. 2005-P05                                Issued 2005 Aug. 1, 11:19 UT
    
         The Minor Planet Electronic Circulars contain information on unusual
             minor planets and routine data on comets.  They are published
       on behalf of Commission 20 of the International Astronomical Union by the
              Minor Planet Center, Smithsonian Astrophysical Observatory,
                              Cambridge, MA 02138, U.S.A.
    
                      Supported in part by the Brinson Foundation
                 Prepared using the Tamkin Foundation Computer Network
    
                                  MPC@CFA.HARVARD.EDU
              URL http://cfa-www.harvard.edu/iau/mpc.html  ISSN 1523-6714
    
                                       2005 OH3
    
    Observations:
         K05O03H* C2005 07 30.62684 20 26 25.85 -10 04 03.5          17.0 V EP005E12
         K05O03H  C2005 07 30.63568 20 26 38.23 -10 06 28.0          17.0 V EP005E12
         K05O03H  C2005 07 30.65344 20 27 03.13 -10 11 16.7          17.3 V EP005E12
         K05O03H  C2005 07 30.65384 20 27 03.74 -10 11 23.5          17.4 V EP005E12
         K05O03H  C2005 07 30.65427 20 27 04.28 -10 11 29.9          17.1 V EP005E12
         K05O03H  C2005 07 30.65468 20 27 04.89 -10 11 36.6          17.5 V EP005E12
         K05O03H  C2005 07 30.69831 20 28 07.32 -10 23 23.2          17.1 V EP005E12
         K05O03H  C2005 07 30.70091 20 28 11.10 -10 24 05.1          17.0 V EP005E12
         K05O03H  C2005 07 30.70350 20 28 14.84 -10 24 46.5          17.4 V EP005E12
         K05O03H  C2005 07 30.74562 20 29 17.19 -10 36 03.0          17.2 V EP005E12
         K05O03H  C2005 07 30.74684 20 29 19.03 -10 36 22.7          17.2 V EP005E12
         K05O03H  C2005 07 30.74808 20 29 20.90 -10 36 42.4          17.2 V EP005E12
         K05O03H  C2005 07 30.74928 20 29 22.70 -10 37 01.9          17.3 V EP005E12
         K05O03H  C2005 07 30.89093 20 33 49.71 -11 29 27.8          16.6 V EP005A50
         K05O03H  C2005 07 30.89105 20 33 49.84 -11 29 28.8          17.3 V EP005A50
         K05O03H  C2005 07 30.89118 20 33 50.08 -11 29 31.5          17.2 V EP005A50
         K05O03H  C2005 07 30.89170 20 33 50.82 -11 29 40.2          17.0 V EP005A50
         K05O03H  C2005 07 30.89184 20 33 51.02 -11 29 42.9          17.2 V EP005A50
         K05O03H  C2005 07 30.89196 20 33 51.22 -11 29 44.9          17.1 V EP005A50
         K05O03H  C2005 07 30.95869 20 35 43.43 -11 47 10.2          17.0 R EP005176
         K05O03H  C2005 07 30.95906 20 35 43.96 -11 47 16.3          17.2 R EP005176
         K05O03H  C2005 07 30.95942 20 35 44.48 -11 47 22.3          17.0 R EP005176
         K05O03H  C2005 07 30.96016 20 35 45.54 -11 47 34.4          17.4 R EP005176
         K05O03H  C2005 07 31.01498 20 36 59.54 -12 02 58.6          16.8 R EP005599
         K05O03H  C2005 07 31.01563 20 37 00.55 -12 03 09.9          17.1 R EP005599
         K05O03H  C2005 07 31.01630 20 37 01.48 -12 03 20.8          16.8 R EP005599
         K05O03H  C2005 07 31.01694 20 37 02.47 -12 03 31.1          17.0 R EP005599
         K05O03H  C2005 07 31.03151 20 37 27.26 -12 07 56.9          17.3 R EP005204
         K05O03H  C2005 07 31.03303 20 37 29.53 -12 08 21.9                 EP005204
         K05O03H  C2005 07 31.03455 20 37 31.78 -12 08 46.8                 EP005204
         K05O03H  C2005 07 31.11661 20 40 00.98 -12 21 27.6          17.5 R EP005I77
         K05O03H  C2005 07 31.11910 20 40 04.52 -12 22 09.4          17.4 R EP005I77
         K05O03H  C2005 07 31.12160 20 40 08.07 -12 22 50.9          17.5 R EP005I77
         K05O03H  C2005 07 31.21003 20 42 47.83 -12 56 36.1          17.6 R EP005734
         K05O03H  C2005 07 31.21311 20 42 52.39 -12 57 28.6          17.7 R EP005734
         K05O03H  C2005 07 31.21465 20 42 54.65 -12 57 53.9          18.1 R EP005734
         K05O03H  C2005 07 31.23985 20 43 19.36 -13 05 14.8          17.2 R EP005932
         K05O03H  C2005 07 31.24420 20 43 25.86 -13 06 26.4          17.3 R EP005932
         K05O03H  C2005 07 31.24739 20 43 30.59 -13 07 18.6          17.2 R EP005932
         K05O03H  C2005 07 31.26850 20 44 21.23 -13 12 17.4          16.7   EP005704
         K05O03H  C2005 07 31.29128 20 44 54.74 -13 18 37.4          18.1   EP005704
         K05O03H  C2005 07 31.30261 20 45 11.40 -13 21 46.0          17.4   EP005704
         K05O03H  C2005 07 31.31414 20 45 28.38 -13 24 57.2          17.7   EP005704
         K05O03H 2C2005 07 31.37048 20 46 51.15 -13 40 13.8          17.3 R EP005H06
         K05O03H 2C2005 07 31.37956 20 47 04.79 -13 42 41.5          16.9 R EP005H06
         K05O03H  C2005 07 31.52734 20 51 49.87 -14 12 53.2          17.3   EP005E12
         K05O03H  C2005 07 31.52776 20 51 50.50 -14 13 00.5          17.4   EP005E12
         K05O03H  C2005 07 31.56299 20 52 43.47 -14 22 51.8          17.3   EP005E12
         K05O03H  C2005 07 31.58367 20 53 14.41 -14 28 36.5          17.3   EP005E12
         K05O03H  C2005 07 31.59366 20 53 29.34 -14 31 21.9          17.5   EP005E12
         K05O03H  C2005 07 31.84955 21 01 07.10 -15 53 28.3          17.2 V EP005A50
         K05O03H  C2005 07 31.85468 21 01 15.04 -15 54 55.7          17.0 V EP005A50
         K05O03H  C2005 07 31.85509 21 01 15.75 -15 55 03.7          17.7 V EP005A50
         K05O03H  C2005 07 31.85551 21 01 16.36 -15 55 09.5          17.0 V EP005A50
         K05O03H  C2005 07 31.98100 21 04 44.78 -16 29 01.1          16.9 V EP005A56
         K05O03H  C2005 07 31.98394 21 04 49.15 -16 29 48.5          16.8 V EP005A56
         K05O03H  C2005 07 31.98607 21 04 52.40 -16 30 23.0          16.5 V EP005A56
         K05O03H  C2005 07 31.98732 21 04 54.25 -16 30 43.2          17.0 V EP005A56
         K05O03H  C2005 07 31.99143 21 05 00.76 -16 31 48.8          16.5 V EP005A56
         K05O03H  C2005 07 31.99296 21 05 03.12 -16 32 13.1          16.7 V EP005A56
         K05O03H  C2005 07 31.99642 21 05 08.80 -16 33 10.8          16.3 V EP005A56
         K05O03H  C2005 08 01.22712 21 12 10.92 -17 34 22.8          17.4 R EP005734
         K05O03H  C2005 08 01.22774 21 12 11.92 -17 34 33.2          17.6 R EP005734
         K05O03H  C2005 08 01.22837 21 12 12.93 -17 34 43.2          17.7 R EP005734
         K05O03H  C2005 08 01.22899 21 12 13.84 -17 34 52.5          17.4 R EP005734
         K05O03H  C2005 08 01.22962 21 12 14.78 -17 35 03.4          17.7 R EP005734
    
    Observer details:
    176 Observatori Astronomic de Consell.  Observers A. Lopez, R. Pacheco,
        J. Forteza.  0.41-m f/4 reflector + CCD.
    204 Schiaparelli Observatory.  Observer L. Buzzi.  0.60-m f/4.64 Newtonian
        reflector + CCD.
    599 Campo Imperatore-CINEOS.  Observer A. Boattini.  Measurers A. Boattini,
        A. Di Paola, E. Dotto.  0.60-m f/3.1 Schmidt + CCD.
    704 Lincoln Laboratory ETS, New Mexico.  Observers M. Blythe, F. Shelly,
        M. Bezpalko, R. Huber, L. Manguso, D. Torres, R. Kracke, M. McCleary,
        H. Stange, A. Milner.  Measurers J. Stuart, R. Sayer, J. Evans, J. Kommers.
        1.0-m f/2.15 reflector + CCD.
    734 Farpoint Observatory.  Observer G. Hug.  0.36-m Schmidt-Cassegrain + CCD,
        0.7-m reflector + CCD.
    932 John J. McCarthy Obs., New Milford.  Observers J. Reynolds, M. Robson.
        0.4-m f/6.5 Schmidt-Cassegrain + CCD.
    A50 Andrushivka Astronomical Observatory.  Observers D. Kyrylenko,
        Y. Ivashchenko.  0.6-m f/2.0 reflector + CCD.
    A56 Parma.  Observer A. Carbognani.  0.25-m f/4.8 reflector.
    E12 Siding Spring Survey.  Observer E. J. Christensen.  Measurers
        E. C. Beshore, C. M. Casey, E. J. Christensen, G. J. Garradd, A. D. Grauer,
        R. E. Hill, S. M. Larson, R. H. McNaught.  0.5-m Uppsala Schmidt + CCD.
    H06 New Mexico Skies Observatory.  Observer R. Hutsebaut.  0.25-m reflector
        + CCD.
    I77 CEAMIG-REA Observatory, Belo Horizonte.  Observers C. Jacques, E. Pimentel.
        Measurer C. Jacques.  0.30-m f/3.0 Schmidt-Cassegrain + CCD.
    
    Orbital elements:
    2005 OH3
    Epoch 2005 July 29.0 TT = JDT 2453580.5                 MPC
    M 354.70198              (2000.0)            P               Q
    n   0.71364045     Peri.  184.47724     +0.68650712     +0.72414199
    a   1.2401753      Node   128.89414     -0.66447073     +0.66151656
    e   0.1706790      Incl.    4.84787     -0.29527380     +0.19497238
    P   1.38           H   26.0           G   0.15
    From 60 observations 2005 July 30-Aug. 1.
    
    Ephemeris:
    2005 OH3                 a,e,i = 1.24, 0.17, 5                   q = 1.0285
    Date    TT    R. A. (2000) Decl.     Delta      r     Elong.  Phase     V
    2005 07 29    19 46.30   -03 01.7    0.0153   1.030   160.5    19.2    18.0
    2005 07 30    20 10.26   -07 17.9    0.0146   1.029   167.0    12.8    17.6
    2005 07 31    20 36.72   -11 50.4    0.0142   1.029   173.4     6.5    17.3
    2005 08 01    21 05.25   -16 24.8    0.0140   1.029   174.9     5.1    17.2
    2005 08 02    21 35.07   -20 44.4    0.0142   1.029   168.7    11.2    17.5
    2005 08 03    22 05.18   -24 34.2    0.0146   1.029   161.7    18.1    17.8
    2005 08 04    22 34.51   -27 45.3    0.0153   1.029   155.1    24.5    18.1
    2005 08 05    23 02.13   -30 15.8    0.0163   1.029   149.3    30.3    18.4
    2005 08 06    23 27.44   -32 09.1    0.0174   1.029   144.2    35.3    18.7
    2005 08 07    23 50.13   -33 31.3    0.0187   1.029   139.8    39.5    19.0
    2005 08 08    00 10.16   -34 29.3    0.0202   1.029   136.2    43.0    19.3
    2005 08 09    00 27.69   -35 08.9    0.0217   1.029   133.1    46.0    19.5
    2005 08 10    00 42.96   -35 35.1    0.0233   1.029   130.6    48.4    19.7
    2005 08 11    00 56.23   -35 51.7    0.0250   1.029   128.5    50.4    19.9
    2005 08 12    01 07.77   -36 01.3    0.0267   1.030   126.7    52.1    20.1
    2005 08 13    01 17.83   -36 06.0    0.0285   1.030   125.3    53.4    20.3
    2005 08 14    01 26.61   -36 07.3    0.0302   1.030   124.1    54.5    20.5
    2005 08 15    01 34.31   -36 06.1    0.0321   1.031   123.2    55.3    20.6
    2005 08 16    01 41.08   -36 03.3    0.0339   1.031   122.4    56.0    20.8
    2005 08 17    01 47.05   -35 59.3    0.0358   1.032   121.8    56.5    20.9
    2005 08 18    01 52.33   -35 54.5    0.0376   1.032   121.3    56.9    21.0
    
    Timothy B. Spahr             (C) Copyright 2005 MPC           M.P.E.C. 2005-P05
    

    Read MPEC 2005-P04 Read MPEC 2005-P06


    MPEC number:

    Enter an MPEC number in one of the following forms:

    • 1997-B01 (the full form)
    • J97B01 (the packed version of the full form)
    • B01 (the abbreviated form)